EW8282 Weather Reports


time (UTC)temp
C
wind
direction
speed
KPH
gust
KPH
rain 1hr
cm
rain 24hr
cm
rain mn
cm
humidity
%
barometer
mb
20190826022504 20 6 3.2 3.2 0.00 0.00 0.00 60 1020.8
20190826022005 20 4 1.6 4.8 0.00 0.00 0.00 60 1020.9
20190826021505 20 10 0.0 4.8 0.00 0.00 0.00 60 1020.6
20190826021004 20 3 3.2 3.2 0.00 0.00 0.00 60 1021.0
20190826020503 20 357 1.6 3.2 0.00 0.00 0.00 60 1021.1
20190826020006 20 5 1.6 3.2 0.00 0.00 0.00 60 1020.8
20190826015503 21 5 3.2 3.2 0.00 0.00 0.00 60 1020.7
20190826015004 21 2 1.6 3.2 0.00 0.00 0.00 60 1021.0
20190826014504 21 15 3.2 3.2 0.00 0.00 0.00 60 1021.0
20190826014007 21 15 1.6 4.8 0.00 0.00 0.00 60 1021.1
20190826013504 21 27 1.6 4.8 0.00 0.00 0.00 60 1021.1
20190826013004 21 17 3.2 4.8 0.00 0.00 0.00 60 1021.0
20190826012506 21 6 3.2 4.8 0.00 0.00 0.00 60 1021.2
20190826012003 21 9 3.2 4.8 0.00 0.00 0.00 60 1021.0
20190826011504 21 11 3.2 3.2 0.00 0.00 0.00 60 1020.9
20190826011004 21 9 3.2 3.2 0.00 0.00 0.00 60 1021.1
20190826010505 21 16 1.6 3.2 0.00 0.00 0.00 59 1021.1
20190826010005 21 36 0.0 3.2 0.00 0.00 0.00 59 1021.1
20190826005508 21 21 0.0 3.2 0.00 0.00 0.00 59 1021.4
20190826005004 21 29 1.6 3.2 0.00 0.00 0.00 59 1021.2
20190826004505 21 52 1.6 3.2 0.00 0.00 0.00 58 1021.1
20190826004003 21 33 0.0 3.2 0.00 0.00 0.00 58 1021.3
20190826003504 21 16 0.0 3.2 0.00 0.00 0.00 58 1021.2
20190826003007 21 49 1.6 3.2 0.00 0.00 0.00 58 1021.1
20190826002505 21 4 1.6 3.2 0.00 0.00 0.00 57 1021.5
20190826002004 21 15 1.6 3.2 0.00 0.00 0.00 58 1021.3
20190826001505 21 45 1.6 3.2 0.00 0.00 0.00 58 1021.2
20190826001003 21 45 1.6 3.2 0.00 0.00 0.00 57 1021.1
20190826000504 21 49 0.0 3.2 0.00 0.00 0.00 57 1021.4
20190826000005 21 33 0.0 3.2 0.00 0.00 0.00 57 1021.4
20190825235503 21 24 0.0 3.2 0.00 0.00 0.00 57 1021.6
20190825235004 21 65 1.6 3.2 0.00 0.00 0.00 57 1021.4
20190825234504 22 69 0.0 3.2 0.00 0.00 0.00 56 1021.3
20190825234004 22 39 0.0 3.2 0.00 0.00 0.00 56 1021.5
20190825233506 22 16 1.6 3.2 0.00 0.00 0.00 56 1021.3
20190825233004 22 358 1.6 3.2 0.00 0.00 0.00 56 1021.5
20190825232504 22 12 1.6 3.2 0.00 0.00 0.00 56 1021.5
20190825232004 22 37 0.0 3.2 0.00 0.00 0.00 55 1021.3
20190825231505 22 18 0.0 3.2 0.00 0.00 0.00 55 1021.5
20190825231003 22 23 0.0 3.2 0.00 0.00 0.00 52 1021.3
20190825230504 22 1 1.6 3.2 0.00 0.00 0.00 52 1021.3
20190825230004 22 3 1.6 3.2 0.00 0.00 0.00 52 1021.5
20190825225505 22 23 1.6 3.2 0.00 0.00 0.00 52 1021.9
20190825225005 22 22 1.6 3.2 0.00 0.00 0.00 52 1021.6
20190825224505 22 11 0.0 3.2 0.00 0.00 0.00 52 1021.6
20190825224004 22 5 1.6 3.2 0.00 0.00 0.00 52 1021.6
20190825223506 22 6 1.6 3.2 0.00 0.00 0.00 51 1021.8
20190825223005 22 14 0.0 3.2 0.00 0.00 0.00 51 1021.7
20190825222503 23 25 1.6 3.2 0.00 0.00 0.00 51 1021.8
20190825222005 23 13 1.6 3.2 0.00 0.00 0.00 51 1021.8
20190825221504 23 2 0.0 3.2 0.00 0.00 0.00 51 1021.8
20190825221004 23 4 1.6 3.2 0.00 0.00 0.00 51 1021.7
20190825220503 23 5 3.2 3.2 0.00 0.00 0.00 51 1021.9
20190825220013 23 358 3.2 3.2 0.00 0.00 0.00 51 1021.8
20190825215503 23 347 1.6 3.2 0.00 0.00 0.00 50 1021.8
20190825215004 23 16 0.0 3.2 0.00 0.00 0.00 50 1022.0
20190825214504 23 22 1.6 4.8 0.00 0.00 0.00 50 1021.9
20190825214005 23 356 1.6 4.8 0.00 0.00 0.00 50 1021.8
20190825213504 23 348 1.6 6.4 0.00 0.00 0.00 50 1021.8
20190825213004 23 344 3.2 6.4 0.00 0.00 0.00 50 1021.9
20190825212505 23 335 3.2 6.4 0.00 0.00 0.00 50 1022.0
20190825212003 23 354 1.6 4.8 0.00 0.00 0.00 50 1022.0
20190825211505 24 350 1.6 6.4 0.00 0.00 0.00 50 1022.1
20190825211007 24 329 3.2 6.4 0.00 0.00 0.00 50 1021.8
20190825210503 24 340 1.6 4.8 0.00 0.00 0.00 50 1022.1
20190825210006 24 358 3.2 4.8 0.00 0.00 0.00 50 1022.0
20190825205504 24 6 3.2 4.8 0.00 0.00 0.00 50 1022.0
20190825205005 24 346 3.2 6.4 0.00 0.00 0.00 50 1022.1
20190825204505 24 350 3.2 6.4 0.00 0.00 0.00 50 1022.0
20190825204004 25 349 3.2 6.4 0.00 0.00 0.00 49 1022.0
20190825203504 25 345 3.2 6.4 0.00 0.00 0.00 49 1022.1
20190825203007 25 336 3.2 6.4 0.00 0.00 0.00 49 1022.1
20190825202504 25 331 3.2 6.4 0.00 0.00 0.00 49 1021.9
20190825202003 25 7 3.2 6.4 0.00 0.00 0.00 48 1022.1
20190825201505 25 7 3.2 6.4 0.00 0.00 0.00 48 1021.9
20190825201004 25 359 3.2 3.2 0.00 0.00 0.00 48 1022.0
20190825200504 25 3 3.2 6.4 0.00 0.00 0.00 47 1022.1
20190825200004 25 345 3.2 6.4 0.00 0.00 0.00 47 1021.8
20190825195508 25 332 3.2 6.4 0.00 0.00 0.00 47 1021.9
20190825195005 25 337 4.8 6.4 0.00 0.00 0.00 47 1021.9
20190825194509 26 335 3.2 6.4 0.00 0.00 0.00 47 1022.0
20190825194004 26 335 1.6 6.4 0.00 0.00 0.00 47 1021.7
20190825193506 26 329 0.0 6.4 0.00 0.00 0.00 46 1021.8
20190825193005 26 325 3.2 8.0 0.00 0.00 0.00 46 1021.8
20190825192507 26 337 4.8 8.0 0.00 0.00 0.00 45 1021.6
20190825192005 26 342 6.4 6.4 0.00 0.00 0.00 45 1021.4
20190825191504 26 332 4.8 8.0 0.00 0.00 0.00 45 1021.5
20190825191007 26 343 3.2 8.0 0.00 0.00 0.00 44 1021.5
20190825190505 26 354 6.4 6.4 0.00 0.00 0.00 44 1021.3
20190825190006 26 356 3.2 8.0 0.00 0.00 0.00 44 1021.5
20190825185504 27 337 4.8 8.0 0.00 0.00 0.00 44 1021.5
20190825185003 27 332 4.8 6.4 0.00 0.00 0.00 44 1021.5
20190825184505 27 349 4.8 6.4 0.00 0.00 0.00 44 1021.5
20190825184004 27 358 3.2 6.4 0.00 0.00 0.00 44 1021.5
20190825183505 27 352 3.2 6.4 0.00 0.00 0.00 44 1021.4
20190825183005 27 339 3.2 6.4 0.00 0.00 0.00 41 1021.3
20190825182503 27 332 3.2 6.4 0.00 0.00 0.00 41 1021.1
20190825182004 27 341 3.2 6.4 0.00 0.00 0.00 41 1021.1
20190825181504 27 333 1.6 4.8 0.00 0.00 0.00 40 1020.9
20190825181004 27 312 3.2 4.8 0.00 0.00 0.00 40 1021.1
20190825180504 28 352 1.6 4.8 0.00 0.00 0.00 40 1020.9
20190825180006 28 17 1.6 8.0 0.00 0.00 0.00 40 1020.9
20190825175504 28 337 3.2 8.0 0.00 0.00 0.00 40 1020.8
20190825175003 28 313 3.2 8.0 0.00 0.00 0.00 39 1020.7
20190825174505 28 336 4.8 8.0 0.00 0.00 0.00 39 1021.0
20190825174004 28 334 3.2 8.0 0.00 0.00 0.00 39 1020.8
20190825173504 28 300 3.2 6.4 0.00 0.00 0.00 38 1020.8
20190825173007 28 308 3.2 8.0 0.00 0.00 0.00 38 1020.6
20190825172503 28 334 3.2 8.0 0.00 0.00 0.00 37 1020.7
20190825172005 28 19 3.2 6.4 0.00 0.00 0.00 37 1020.6
20190825171505 29 37 3.2 6.4 0.00 0.00 0.00 37 1020.6
20190825171007 29 4 1.6 6.4 0.00 0.00 0.00 37 1020.7
20190825170503 29 352 4.8 8.0 0.00 0.00 0.00 36 1020.6
20190825170008 29 346 4.8 8.0 0.00 0.00 0.00 36 1020.7
20190825165504 29 348 3.2 8.0 0.00 0.00 0.00 36 1020.3
20190825165004 29 20 3.2 9.7 0.00 0.00 0.00 36 1020.4
20190825164506 29 21 3.2 9.7 0.00 0.00 0.00 36 1020.4
20190825164004 29 4 4.8 11.3 0.00 0.00 0.00 36 1020.4
20190825163504 29 344 3.2 11.3 0.00 0.00 0.00 36 1020.4
20190825163005 29 328 4.8 11.3 0.00 0.00 0.00 36 1020.6
20190825162505 29 329 3.2 12.9 0.00 0.00 0.00 35 1020.4
20190825162004 30 333 3.2 16.1 0.00 0.00 0.00 35 1020.4
20190825161505 30 322 11.3 16.1 0.00 0.00 0.00 35 1020.4
20190825161004 30 285 4.8 12.9 0.00 0.00 0.00 35 1020.4
20190825160503 30 289 6.4 12.9 0.00 0.00 0.00 35 1020.5
20190825160005 30 340 6.4 12.9 0.00 0.00 0.00 35 1020.3
20190825155503 30 6 1.6 14.5 0.00 0.00 0.00 35 1020.4
20190825155003 30 342 6.4 14.5 0.00 0.00 0.00 35 1020.6
20190825154505 30 345 3.2 12.9 0.00 0.00 0.00 35 1020.3
20190825154003 30 346 1.6 12.9 0.00 0.00 0.00 35 1020.3
20190825153504 30 26 9.7 12.9 0.00 0.00 0.00 35 1020.5
20190825153006 30 3 3.2 9.7 0.00 0.00 0.00 35 1020.4
20190825152504 30 354 6.4 12.9 0.00 0.00 0.00 35 1020.2
20190825152004 30 26 3.2 12.9 0.00 0.00 0.00 35 1020.4
20190825151505 30 26 4.8 8.0 0.00 0.00 0.00 35 1020.1
20190825151005 30 356 1.6 14.5 0.00 0.00 0.00 35 1020.3
20190825150504 30 331 6.4 14.5 0.00 0.00 0.00 34 1020.3
20190825150006 30 26 6.4 9.7 0.00 0.00 0.00 35 1020.4
20190825145504 30 12 6.4 12.9 0.00 0.00 0.00 34 1020.4
20190825145004 30 3 3.2 12.9 0.00 0.00 0.00 35 1020.3
20190825144505 30 341 9.7 12.9 0.00 0.00 0.00 34 1020.5
20190825144003 30 334 6.4 16.1 0.00 0.00 0.00 34 1020.6
20190825143504 30 356 9.7 16.1 0.00 0.00 0.00 34 1020.4
20190825143006 30 346 4.8 17.7 0.00 0.00 0.00 34 1020.5
20190825142505 30 354 6.4 17.7 0.00 0.00 0.00 34 1020.5
20190825142005 30 358 4.8 9.7 0.00 0.00 0.00 34 1020.8
20190825141505 30 354 1.6 6.4 0.00 0.00 0.00 34 1020.6
20190825141004 30 27 3.2 6.4 0.00 0.00 0.00 34 1020.8
20190825140504 30 74 3.2 6.4 0.00 0.00 0.00 34 1020.8
20190825140005 30 89 3.2 6.4 0.00 0.00 0.00 34 1020.6
20190825135503 30 17 3.2 8.0 0.00 0.00 0.00 33 1020.8
20190825135004 30 318 3.2 8.0 0.00 0.00 0.00 33 1021.0
20190825134508 30 43 1.6 11.3 0.00 0.00 0.00 34 1021.0
20190825134004 30 27 4.8 11.3 0.00 0.00 0.00 34 1021.0
20190825133505 30 353 3.2 9.7 0.00 0.00 0.00 33 1020.9
20190825133004 30 343 3.2 12.9 0.00 0.00 0.00 33 1021.0
20190825132504 30 319 4.8 12.9 0.00 0.00 0.00 33 1021.0
20190825132005 30 288 9.7 11.3 0.00 0.00 0.00 33 1021.0
20190825131505 30 17 3.2 9.7 0.00 0.00 0.00 34 1021.3
20190825131003 30 46 3.2 8.0 0.00 0.00 0.00 34 1021.2
20190825130507 30 292 3.2 11.3 0.00 0.00 0.00 34 1021.1
20190825130005 30 326 3.2 17.7 0.00 0.00 0.00 34 1020.9
20190825125504 30 350 4.8 17.7 0.00 0.00 0.00 34 1021.4
20190825125003 30 353 4.8 14.5 0.00 0.00 0.00 34 1021.2
20190825124505 30 353 11.3 14.5 0.00 0.00 0.00 34 1021.1
20190825124004 30 335 3.2 12.9 0.00 0.00 0.00 34 1021.2
20190825123503 30 327 3.2 12.9 0.00 0.00 0.00 34 1021.2
20190825123006 31 334 6.4 16.1 0.00 0.00 0.00 33 1021.2
20190825122505 32 341 6.4 16.1 0.00 0.00 0.00 32 1021.3
20190825122005 32 329 6.4 12.9 0.00 0.00 0.00 30 1021.3
20190825121504 32 319 4.8 12.9 0.00 0.00 0.00 30 1021.4
20190825121004 32 158 8.0 12.9 0.00 0.00 0.00 32 1021.4
20190825120504 32 215 4.8 17.7 0.00 0.00 0.00 32 1021.5
20190825120004 32 309 4.8 17.7 0.00 0.00 0.00 32 1021.5
20190825115504 32 324 8.0 16.1 0.00 0.00 0.00 30 1021.7
20190825115003 33 300 3.2 11.3 0.00 0.00 0.00 28 1021.6
20190825114507 33 41 1.6 14.5 0.00 0.00 0.00 30 1021.7
20190825114004 33 228 3.2 14.5 0.00 0.00 0.00 30 1021.7
20190825113503 33 314 1.6 12.9 0.00 0.00 0.00 30 1021.8
20190825113005 32 1 6.4 12.9 0.00 0.00 0.00 30 1021.6
20190825112503 33 11 3.2 9.7 0.00 0.00 0.00 30 1021.7
20190825112004 33 351 1.6 11.3 0.00 0.00 0.00 30 1021.9
20190825111506 32 353 4.8 16.1 0.00 0.00 0.00 31 1021.7
20190825111005 32 357 6.4 16.1 0.00 0.00 0.00 33 1021.9
20190825110503 32 53 6.4 12.9 0.00 0.00 0.00 33 1021.8
20190825110005 31 13 3.2 17.7 0.00 0.00 0.00 34 1021.8
20190825105503 31 352 4.8 17.7 0.00 0.00 0.00 34 1022.0
20190825105004 31 354 9.7 17.7 0.00 0.00 0.00 33 1022.0
20190825104504 31 337 8.0 19.3 0.00 0.00 0.00 33 1022.1
20190825104006 31 322 8.0 19.3 0.00 0.00 0.00 33 1022.0
20190825103503 32 51 6.4 11.3 0.00 0.00 0.00 33 1022.2
20190825103005 32 358 4.8 12.9 0.00 0.00 0.00 33 1022.2
20190825102503 32 28 3.2 12.9 0.00 0.00 0.00 33 1022.4
20190825102005 32 354 6.4 22.5 0.00 0.00 0.00 33 1022.2
20190825101504 31 347 6.4 22.5 0.00 0.00 0.00 33 1022.2
20190825101004 32 181 12.9 22.5 0.00 0.00 0.00 32 1021.9
20190825100506 32 201 3.2 12.9 0.00 0.00 0.00 33 1022.1
20190825100004 32 331 3.2 12.9 0.00 0.00 0.00 33 1022.3
20190825095503 31 350 3.2 11.3 0.00 0.00 0.00 34 1022.3
20190825095004 31 344 3.2 12.9 0.00 0.00 0.00 34 1022.3
20190825094505 31 314 3.2 12.9 0.00 0.00 0.00 34 1022.3
20190825094004 31 293 3.2 12.9 0.00 0.00 0.00 35 1021.9
20190825093503 31 313 4.8 11.3 0.00 0.00 0.00 36 1021.9
20190825093006 30 279 4.8 16.1 0.00 0.00 0.00 37 1022.2
20190825092506 30 311 6.4 16.1 0.00 0.00 0.00 37 1022.1
20190825092004 30 335 11.3 14.5 0.00 0.00 0.00 36 1022.1
20190825091514 31 341 9.7 12.9 0.00 0.00 0.00 35 1022.2
20190825091005 30 1 4.8 9.7 0.00 0.00 0.00 36 1022.1
20190825090504 30 116 4.8 12.9 0.00 0.00 0.00 36 1022.2
20190825090004 30 43 3.2 12.9 0.00 0.00 0.00 37 1022.4
20190825085504 30 6 1.6 12.9 0.00 0.00 0.00 40 1022.1
20190825085003 30 6 3.2 8.0 0.00 0.00 0.00 40 1022.3
20190825084504 29 331 4.8 12.9 0.00 0.00 0.00 40 1022.1
20190825084004 29 315 3.2 12.9 0.00 0.00 0.00 40 1022.1
20190825083504 29 340 4.8 12.9 0.00 0.00 0.00 41 1022.3
20190825083008 28 341 6.4 11.3 0.00 0.00 0.00 41 1022.4
20190825082503 28 313 6.4 11.3 0.00 0.00 0.00 41 1022.5
20190825082008 27 328 3.2 14.5 0.00 0.00 0.00 43 1022.4
20190825081505 27 345 8.0 14.5 0.00 0.00 0.00 41 1022.3
20190825081003 28 107 3.2 4.8 0.00 0.00 0.00 43 1022.6
20190825080504 27 125 3.2 6.4 0.00 0.00 0.00 49 1022.3
20190825080005 27 35 3.2 8.0 0.00 0.00 0.00 49 1022.4
20190825075505 26 15 1.6 11.3 0.00 0.00 0.00 50 1022.3
20190825075003 25 350 1.6 12.9 0.00 0.00 0.00 50 1022.5
20190825074508 25 355 6.4 12.9 0.00 0.00 0.00 50 1022.4
20190825074004 25 7 3.2 9.7 0.00 0.00 0.00 50 1022.4
20190825073505 25 4 4.8 9.7 0.00 0.00 0.00 51 1022.4
20190825073004 25 328 1.6 14.5 0.00 0.00 0.00 52 1022.4
20190825072504 24 311 3.2 14.5 0.00 0.00 0.00 51 1022.4
20190825072006 25 347 8.0 9.7 0.00 0.00 0.00 51 1022.4
20190825071506 24 331 3.2 9.7 0.00 0.00 0.00 52 1022.3
20190825071003 23 333 3.2 9.7 0.00 0.00 0.00 53 1022.3
20190825070504 23 329 6.4 11.3 0.00 0.00 0.00 54 1022.4
20190825070004 23 293 3.2 11.3 0.00 0.00 0.00 53 1022.4
20190825065504 23 315 8.0 12.9 0.00 0.00 0.00 53 1022.5
20190825065004 23 324 6.4 12.9 0.00 0.00 0.00 53 1022.5
20190825064504 23 6 6.4 8.0 0.00 0.00 0.00 54 1022.5
20190825064004 22 311 3.2 11.3 0.00 0.00 0.00 55 1022.2
20190825063504 22 353 1.6 12.9 0.00 0.00 0.00 55 1022.3
20190825063004 22 9 3.2 12.9 0.00 0.00 0.00 60 1022.4
20190825062504 22 316 6.4 12.9 0.00 0.00 0.00 60 1022.4
20190825062003 22 312 6.4 14.5 0.00 0.00 0.00 60 1022.2
20190825061506 21 351 6.4 14.5 0.00 0.00 0.00 61 1022.2
20190825061003 21 27 12.9 14.5 0.00 0.00 0.00 61 1022.3
20190825060505 21 29 6.4 8.0 0.00 0.00 0.00 62 1022.0
20190825060005 21 11 6.4 8.0 0.00 0.00 0.00 62 1021.9
20190825055503 20 349 4.8 9.7 0.00 0.00 0.00 62 1021.9
20190825055003 20 332 1.6 9.7 0.00 0.00 0.00 62 1021.9
20190825054505 20 338 3.2 11.3 0.00 0.00 0.00 62 1022.0
20190825054004 20 322 4.8 12.9 0.00 0.00 0.00 61 1021.9
20190825053504 20 326 6.4 12.9 0.00 0.00 0.00 61 1022.0
20190825053005 20 333 6.4 9.7 0.00 0.00 0.00 61 1022.1
20190825052504 20 333 6.4 8.0 0.00 0.00 0.00 61 1022.0
20190825052003 20 330 4.8 9.7 0.00 0.00 0.00 61 1022.0
20190825051505 20 318 3.2 9.7 0.00 0.00 0.00 62 1021.9
20190825051003 20 342 4.8 6.4 0.00 0.00 0.00 62 1022.0
20190825050504 20 347 3.2 6.4 0.00 0.00 0.00 62 1021.8
20190825050004 20 342 3.2 8.0 0.00 0.00 0.00 62 1021.9
20190825045510 20 347 4.8 8.0 0.00 0.00 0.00 62 1021.7
20190825045003 20 5 6.4 8.0 0.00 0.00 0.00 62 1021.9
20190825044505 20 3 3.2 8.0 0.00 0.00 0.00 61 1021.8
20190825044003 20 5 3.2 4.8 0.00 0.00 0.00 61 1021.8
20190825043504 20 357 3.2 8.0 0.00 0.00 0.00 61 1021.6
20190825043004 20 354 3.2 8.0 0.00 0.00 0.00 61 1021.7
20190825042503 20 356 4.8 8.0 0.00 0.00 0.00 61 1021.7
20190825042004 20 341 3.2 11.3 0.00 0.00 0.00 60 1021.4
20190825041504 20 324 3.2 11.3 0.00 0.00 0.00 60 1021.5
20190825041004 20 321 6.4 11.3 0.00 0.00 0.00 60 1021.5
20190825040503 20 1 0.0 6.4 0.00 0.00 0.00 60 1021.6
20190825040005 20 357 0.0 11.3 0.00 0.00 0.00 60 1021.6
20190825035503 20 2 3.2 11.3 0.00 0.00 0.00 60 1021.5
20190825035004 20 355 6.4 11.3 0.00 0.00 0.00 60 1021.6
20190825034504 20 359 3.2 6.4 0.00 0.00 0.00 60 1021.6
20190825034003 20 8 1.6 6.4 0.00 0.00 0.00 60 1021.5
20190825033504 20 3 3.2 6.4 0.00 0.00 0.00 59 1021.4
20190825033004 20 13 3.2 8.0 0.00 0.00 0.00 59 1021.4
20190825032504 20 4 3.2 8.0 0.00 0.00 0.00 59 1021.5
20190825032004 20 353 3.2 9.7 0.00 0.00 0.00 59 1021.6
20190825031505 20 355 4.8 9.7 0.00 0.00 0.00 59 1021.6
20190825031004 20 36 3.2 8.0 0.00 0.00 0.00 59 1021.4
20190825030503 20 21 3.2 8.0 0.00 0.00 0.00 59 1021.7
20190825030005 20 348 4.8 6.4 0.00 0.00 0.00 59 1021.8
20190825025503 20 317 1.6 6.4 0.00 0.00 0.00 58 1021.8
20190825025004 20 323 4.8 8.0 0.00 0.00 0.00 58 1021.5
20190825024504 20 345 3.2 8.0 0.00 0.00 0.00 59 1021.6
20190825024004 20 6 3.2 6.4 0.00 0.00 0.00 59 1021.6
20190825023504 20 17 3.2 6.4 0.00 0.00 0.00 59 1021.8
20190825023005 20 4 1.6 3.2 0.00 0.00 0.00 59 1021.6